[[{"header":{"parameterUnit":"m.s-1","parameterCategory":2,"la1":30.2991,"la2":30.254,"lo1":-89.0895,"lo2":-89.0444,"dy":0.0017,"dx":0.0017,"nx":28,"ny":28,"refTime":"2024-12-02T09:00:00:Z","depth":"0","parameterNumber":2,"parameterNumberName":"U-component_of_CURRENTS"},"data":[0,0,0,0,0,0,0,0,0,0,0,0,0,0,0,0,0,0,0,0,0,0,0,0,0,0,0,0,0,0,0,0,0,0,0,0,0,0,0,0,0,0,0,0,0,0,0,0,0,0,0,0,0,0,0,0,0,0,0.1937,0.1938,0,0.1985,0.1985,0.1986,0.1998,0.1998,0.1998,0.1998,0.2009,0.201,0.201,0,0,0,0,0,0,0,0,0,0,0,0,0,0.1846,0.1848,0.1937,0.1938,0.1939,0.1985,0.1985,0.1986,0.1998,0.1998,0.1998,0.1998,0.2009,0.201,0.201,0,0,0,0,0,0,0,0,0,0,0,0,0,0.1888,0.1848,0.1937,0.1952,0.1953,0.1985,0.1985,0.1986,0.1998,0.1998,0.1998,0.1998,0.2009,0.201,0.201,0.2019,0,0,0.2012,0.2013,0,0,0,0,0,0,0,0,0.1885,0.1891,0.1949,0.1951,0.1953,0.1987,0.1957,0.1996,0.1999,0.198,0.1998,0.1998,0.1999,0.2001,0.2009,0.202,0.202,0.2012,0.2013,0.2013,0.2013,0,0,0,0,0,0,0,0.1882,0.1889,0.1955,0.195,0.1952,0.1952,0.1957,0.1965,0.1989,0.1982,0.1983,0.199,0.2,0.2008,0.2009,0.2021,0.2012,0.2013,0.2013,0.2014,0.2056,0.2056,0,0,0,0,0,0,0.188,0.1886,0.1953,0.1956,0.1919,0.1954,0.196,0.1975,0.199,0.1992,0.1991,0.1991,0.2007,0.2008,0.201,0.2034,0.2013,0.2014,0.2014,0.2055,0.2056,0.2056,0,0,0,0,0,0,0.1878,0.1886,0.1951,0.1923,0.1931,0.1956,0.1972,0.1976,0.1987,0.1997,0.1999,0.1998,0.2007,0.2009,0.2023,0.2034,0.2014,0.2015,0.2054,0.2055,0.2056,0.2074,0,0,0,0,0,0,0.1876,0.1885,0.1892,0.1923,0.1933,0.1973,0.1973,0.1977,0.1992,0.1993,0.2004,0.2005,0.2007,0.2022,0.2024,0.2034,0.2015,0.2053,0.2054,0.2056,0.2073,0.2076,0.2078,0,0,0,0,0,0.1872,0.1882,0.1892,0.19,0.1943,0.1973,0.1978,0.1993,0.1993,0.2001,0.201,0.2004,0.2031,0.2023,0.2025,0.2036,0.2052,0.2054,0.2056,0.2071,0.2075,0.2078,0,0,0,0,0,0,0.184,0.1885,0.1897,0.1918,0.1946,0.1976,0.1983,0.1995,0.2009,0.2009,0.2014,0.2015,0.2032,0.2033,0.2024,0.2053,0.2041,0.2043,0.2053,0.2056,0.2059,0.2068,0.2016,0,0,0,0,0,0.1839,0.186,0.1899,0.1915,0.193,0.1957,0.197,0.1985,0.2003,0.2009,0.2018,0.2028,0.2041,0.2047,0.2056,0.2072,0.2089,0.208,0.2083,0.2085,0.2095,0.2117,0.2123,0.2062,0.2062,0.2062,0,0,0.1828,0.1857,0.1867,0.191,0.1931,0.1958,0.1964,0.1988,0.201,0.2008,0.2031,0.2037,0.2047,0.2066,0.2074,0.2068,0.2118,0.2087,0.2089,0.2097,0.212,0.2125,0.2131,0.2063,0.2062,0.2062,0,0,0.1823,0.1848,0.1866,0.1894,0.1934,0.1955,0.1963,0.1998,0.2012,0.2037,0.2043,0.2059,0.2073,0.2089,0.2097,0.2122,0.2131,0.2121,0.2143,0.2164,0.217,0.2174,0.2228,0.2237,0.2122,0.2122,0.2122,0,0.1806,0.1843,0.1873,0.1903,0.1927,0.1955,0.1981,0.2003,0.2037,0.2055,0.2045,0.2083,0.2088,0.2122,0.2131,0.2129,0.2151,0.2127,0.2168,0.2173,0.2177,0.2231,0.2241,0.2123,0.2123,0.2123,0.2123,0,0.1823,0.1852,0.1865,0.1916,0.1944,0.197,0.2011,0.2034,0.205,0.2074,0.2108,0.2117,0.2142,0.2143,0.2144,0.2182,0.2192,0.2168,0.2159,0.2185,0.224,0.225,0.2125,0.2124,0.2124,0.2124,0,0,0.1788,0.1862,0.1867,0.1896,0.1955,0.1981,0.2021,0.2069,0.2101,0.2121,0.2162,0.2179,0.2186,0.2197,0.22,0.2216,0.2272,0.2207,0.2207,0.226,0.2347,0.242,0.2438,0.2249,0.225,0.2251,0.2381,0,0.1792,0.1847,0.1884,0.1932,0.1966,0.2009,0.2047,0.2094,0.2128,0.2173,0.2192,0.223,0.2207,0.2225,0.2237,0.2266,0.2296,0.2241,0.2315,0.2318,0.2378,0.2451,0.2415,0.2533,0.2391,0.2393,0.2394,0,0.1798,0.184,0.1887,0.1957,0.1975,0.2002,0.2075,0.2112,0.2182,0.2213,0.2251,0.2276,0.2324,0.2288,0.2353,0.2319,0.2339,0.2353,0.2357,0.2426,0.2409,0.248,0.2557,0.2518,0.2409,0.2408,0.2407,0,0.1771,0.184,0.1878,0.1902,0.1982,0.2007,0.2046,0.2118,0.2166,0.2244,0.229,0.2339,0.2382,0.24,0.2452,0.2401,0.2532,0.2462,0.2551,0.2557,0.2545,0.2548,0.2591,0.2508,0.2507,0.2507,0.2507,0,0.1767,0.1797,0.1865,0.1889,0.1934,0.1992,0.2047,0.2097,0.2183,0.2256,0.2303,0.2385,0.2409,0.2491,0.2498,0.2595,0.2577,0.2589,0.2602,0.2554,0.2557,0.2534,0.2507,0.2512,0.2511,0.251,0.2509,0,0.1733,0.1779,0.1823,0.1898,0.1922,0.195,0.2045,0.2088,0.2175,0.2275,0.231,0.244,0.2561,0.2611,0.2684,0.2682,0.27,0.2779,0.2749,0.2757,0.2773,0.2748,0.2711,0.2614,0.2883,0.2886,0.2888,0,0.172,0.1741,0.1814,0.1835,0.1866,0.1922,0.1964,0.2067,0.2131,0.2322,0.2375,0.2541,0.265,0.2819,0.2877,0.295,0.2824,0.2952,0.2837,0.2811,0.2791,0.2637,0.2542,0.2833,0.2834,0.2836,0.2837,0,0.1687,0.1709,0.1742,0.1793,0.1831,0.1883,0.1959,0.2012,0.2153,0.225,0.241,0.2519,0.2752,0.2853,0.3,0.3025,0.2846,0.2983,0.294,0.2768,0.2614,0.2515,0.2731,0.2848,0.2847,0.2846,0.2846,0.2845,0.1641,0.1652,0.1692,0.1735,0.178,0.1821,0.1843,0.1949,0.2043,0.2192,0.2365,0.2516,0.278,0.2989,0.3008,0.3067,0.2949,0.2989,0.297,0.2822,0.2697,0.2979,0.3115,0.3116,0.3116,0.3116,0.3116,0,0.1573,0.1599,0.1636,0.1673,0.1692,0.1748,0.1823,0.1842,0.1921,0.2124,0.2258,0.2548,0.2739,0.2924,0.3122,0.3065,0.2846,0.2996,0.274,0.2647,0.2909,0.2877,0.2985,0.2985,0.2986,0.2986,0.2986,0.2986,0.1531,0.1536,0.1566,0.1572,0.1602,0.1604,0.1625,0.1679,0.1804,0.1982,0.2165,0.235,0.2765,0.3118,0.3177,0.3085,0.2802,0.274,0.2648,0.2841,0.2835,0.283,0.2792,0.2881,0.288,0.2259,0.2255,0.2252]},{"header":{"parameterUnit":"m.s-1","parameterCategory":2,"la1":30.2991,"la2":30.254,"lo1":-89.0895,"lo2":-89.0444,"dy":0.0017,"dx":0.0017,"nx":28,"ny":28,"refTime":"2024-12-02T09:00:00:Z","depth":"0","parameterNumber":3,"parameterNumberName":"V-component_of_CURRENTS"},"data":[0,0,0,0,0,0,0,0,0,0,0,0,0,0,0,0,0,0,0,0,0,0,0,0,0,0,0,0,0,0,0,0,0,0,0,0,0,0,0,0,0,0,0,0,0,0,0,0,0,0,0,0,0,0,0,0,0,0,-0.0572,-0.0572,0,-0.064,-0.0641,-0.0642,-0.0683,-0.0683,-0.0683,-0.0683,-0.0796,-0.0799,-0.0801,0,0,0,0,0,0,0,0,0,0,0,0,0,-0.0505,-0.0505,-0.0572,-0.0572,-0.0573,-0.064,-0.0641,-0.0642,-0.0683,-0.0683,-0.0683,-0.0684,-0.0795,-0.0798,-0.0802,0,0,0,0,0,0,0,0,0,0,0,0,0,-0.055,-0.0506,-0.0571,-0.0601,-0.0604,-0.064,-0.0641,-0.0642,-0.0683,-0.0683,-0.0683,-0.0684,-0.0794,-0.0798,-0.0802,-0.0825,0,0,-0.0815,-0.0817,0,0,0,0,0,0,0,0,-0.0547,-0.0553,-0.0596,-0.0599,-0.0603,-0.0652,-0.0658,-0.0705,-0.0683,-0.0654,-0.0683,-0.0684,-0.0751,-0.0759,-0.0772,-0.0831,-0.0835,-0.0816,-0.0818,-0.082,-0.0821,0,0,0,0,0,0,0,-0.0544,-0.055,-0.06,-0.0597,-0.0601,-0.062,-0.0627,-0.0668,-0.0702,-0.0657,-0.066,-0.0666,-0.0754,-0.0768,-0.0775,-0.0837,-0.0816,-0.0819,-0.0822,-0.0824,-0.0913,-0.0913,0,0,0,0,0,0,-0.0532,-0.0547,-0.0597,-0.0602,-0.0574,-0.0621,-0.0629,-0.0637,-0.0701,-0.071,-0.0665,-0.0667,-0.076,-0.077,-0.0779,-0.081,-0.082,-0.0824,-0.0827,-0.0913,-0.0913,-0.0913,0,0,0,0,0,0,-0.0531,-0.0536,-0.0595,-0.0575,-0.0584,-0.0622,-0.0631,-0.0638,-0.0652,-0.0707,-0.0718,-0.0672,-0.0761,-0.0773,-0.0809,-0.0814,-0.0826,-0.083,-0.0913,-0.0913,-0.0913,-0.0871,0,0,0,0,0,0,-0.0529,-0.0535,-0.0537,-0.0574,-0.0584,-0.0612,-0.0631,-0.0639,-0.0655,-0.0658,-0.0716,-0.0727,-0.0762,-0.0802,-0.0813,-0.0821,-0.0834,-0.0914,-0.0913,-0.0913,-0.0873,-0.087,-0.0867,0,0,0,0,0,-0.0526,-0.0526,-0.0537,-0.0543,-0.0585,-0.0611,-0.0618,-0.0647,-0.0655,-0.066,-0.0695,-0.0725,-0.0807,-0.0805,-0.0818,-0.0827,-0.0914,-0.0913,-0.0913,-0.0874,-0.087,-0.0867,0,0,0,0,0,0,-0.0498,-0.0531,-0.0543,-0.0554,-0.0578,-0.0618,-0.0625,-0.0643,-0.0674,-0.0677,-0.0726,-0.0739,-0.0771,-0.0801,-0.0798,-0.085,-0.0864,-0.0866,-0.0831,-0.0827,-0.0824,-0.0823,-0.0837,0,0,0,0,0,-0.0491,-0.0501,-0.0535,-0.0542,-0.0552,-0.0587,-0.06,-0.0619,-0.0651,-0.0665,-0.0703,-0.0743,-0.0779,-0.0803,-0.0839,-0.0871,-0.0899,-0.0883,-0.088,-0.0877,-0.0884,-0.0934,-0.0937,-0.0911,-0.0911,-0.0911,0,0,-0.0483,-0.0502,-0.0508,-0.0537,-0.0558,-0.0571,-0.0596,-0.0613,-0.0626,-0.0673,-0.07,-0.0734,-0.0784,-0.0816,-0.0834,-0.0843,-0.0893,-0.0876,-0.0874,-0.0883,-0.0934,-0.0937,-0.0939,-0.091,-0.0911,-0.0911,0,0,-0.0467,-0.0486,-0.0487,-0.0506,-0.0533,-0.0556,-0.0557,-0.0594,-0.0612,-0.0642,-0.0676,-0.0711,-0.0766,-0.0804,-0.083,-0.0832,-0.0873,-0.084,-0.0831,-0.0879,-0.0882,-0.0885,-0.0899,-0.0904,-0.0842,-0.0842,-0.0842,0,-0.0454,-0.0461,-0.0491,-0.0496,-0.0506,-0.0545,-0.0546,-0.0574,-0.0617,-0.0632,-0.0644,-0.0726,-0.0764,-0.0813,-0.0811,-0.0828,-0.0849,-0.0841,-0.0876,-0.088,-0.0884,-0.0898,-0.0903,-0.084,-0.084,-0.084,-0.084,0,-0.0441,-0.0446,-0.0447,-0.0467,-0.0483,-0.049,-0.0528,-0.0546,-0.057,-0.0601,-0.0649,-0.0704,-0.0754,-0.077,-0.0794,-0.0838,-0.0841,-0.0863,-0.0886,-0.0884,-0.0898,-0.0905,-0.0837,-0.0837,-0.0838,-0.0839,0,0,-0.0408,-0.0432,-0.0431,-0.0428,-0.0465,-0.0471,-0.0496,-0.0527,-0.0534,-0.0593,-0.0617,-0.0687,-0.072,-0.0751,-0.0791,-0.0836,-0.087,-0.0857,-0.0861,-0.0871,-0.0953,-0.0889,-0.089,-0.0901,-0.0902,-0.0904,-0.0943,0,-0.0384,-0.0378,-0.0403,-0.0395,-0.0392,-0.0432,-0.0445,-0.048,-0.0517,-0.055,-0.0629,-0.066,-0.0714,-0.0727,-0.0789,-0.0848,-0.089,-0.0856,-0.0955,-0.0957,-0.0901,-0.0897,-0.0871,-0.09,-0.095,-0.0951,-0.0952,0,-0.0358,-0.0356,-0.034,-0.0345,-0.0347,-0.0349,-0.0368,-0.0387,-0.0451,-0.0481,-0.0552,-0.0606,-0.0687,-0.0723,-0.0854,-0.0829,-0.0889,-0.0938,-0.0942,-0.0906,-0.0906,-0.0916,-0.091,-0.1083,-0.0962,-0.0962,-0.0961,0,-0.0304,-0.0309,-0.0288,-0.0292,-0.0308,-0.0304,-0.0315,-0.036,-0.0354,-0.0434,-0.0431,-0.0564,-0.0583,-0.0721,-0.0817,-0.0841,-0.0941,-0.0989,-0.099,-0.0985,-0.0995,-0.0988,-0.1172,-0.108,-0.108,-0.108,-0.108,0,-0.0262,-0.0243,-0.0256,-0.0241,-0.0203,-0.0244,-0.0213,-0.0247,-0.0276,-0.0241,-0.0383,-0.0368,-0.058,-0.0656,-0.0797,-0.0893,-0.0928,-0.0986,-0.0997,-0.0974,-0.0965,-0.1142,-0.1251,-0.1082,-0.1081,-0.1081,-0.1081,0,-0.0195,-0.021,-0.0176,-0.0178,-0.0171,-0.0142,-0.012,-0.0093,-0.0138,-0.0099,-0.0109,-0.0209,-0.0297,-0.0493,-0.0672,-0.0806,-0.1027,-0.0963,-0.0898,-0.09,-0.1077,-0.1183,-0.1374,-0.1439,-0.1,-0.0998,-0.0997,0,-0.0156,-0.0134,-0.0108,-0.007,-0.0061,-0.0025,0.0016,-0.0017,0.0028,0.0031,0.0075,0.0002,-0.0011,-0.0265,-0.052,-0.0755,-0.0943,-0.0883,-0.0937,-0.1079,-0.1209,-0.1295,-0.1344,-0.0932,-0.0931,-0.093,-0.0929,0,-0.0072,-0.0064,-0.0034,0.0045,0.0098,0.0157,0.0213,0.0272,0.027,0.0315,0.0386,0.0374,0.0155,-0.0054,-0.0372,-0.0562,-0.1008,-0.0861,-0.1056,-0.1205,-0.1271,-0.1338,-0.0894,-0.0918,-0.0919,-0.0919,-0.092,-0.092,0.0003,0.0047,0.0093,0.0172,0.0238,0.034,0.0416,0.0494,0.0595,0.0692,0.0657,0.069,0.0343,-0.0083,-0.0361,-0.086,-0.0896,-0.103,-0.1154,-0.1233,-0.1287,-0.0784,-0.0786,-0.0787,-0.0787,-0.0787,-0.0787,0,0.0104,0.0147,0.0223,0.0318,0.0417,0.0424,0.0557,0.0649,0.0808,0.0905,0.0972,0.0844,0.0413,-0.0066,-0.0722,-0.1092,-0.1272,-0.1324,-0.1494,-0.1534,-0.1129,-0.1116,-0.1133,-0.1133,-0.1133,-0.1132,-0.1132,-0.1132,0.0163,0.0256,0.0289,0.0462,0.0535,0.0679,0.0767,0.0904,0.1008,0.1164,0.1208,0.1194,0.0839,-0.0406,-0.1254,-0.1472,-0.178,-0.183,-0.1975,-0.1757,-0.1741,-0.1726,-0.1741,-0.1888,-0.1889,-0.2327,-0.2332,-0.2336]}],[{"header":{"parameterUnit":"m.s-1","parameterCategory":2,"la1":30.2991,"la2":30.254,"lo1":-89.0895,"lo2":-89.0444,"dy":0.0017,"dx":0.0017,"nx":28,"ny":28,"refTime":"2024-12-02T09:00:00:Z","depth":"2","parameterNumber":2,"parameterNumberName":"U-component_of_CURRENTS"},"data":[0,0,0,0,0,0,0,0,0,0,0,0,0,0,0,0,0,0,0,0,0,0,0,0,0,0,0,0,0,0,0,0,0,0,0,0,0,0,0,0,0,0,0,0,0,0,0,0,0,0,0,0,0,0,0,0,0,0,0.1833,0.1834,0,0.1884,0.1884,0.1884,0.1897,0.1897,0.1897,0.1897,0.192,0.192,0.1921,0,0,0,0,0,0,0,0,0,0,0,0,0,0.1745,0.1747,0.1833,0.1834,0.1835,0.1884,0.1884,0.1885,0.1897,0.1897,0.1897,0.1897,0.1919,0.192,0.1921,0,0,0,0,0,0,0,0,0,0,0,0,0,0.1785,0.1747,0.1833,0.1849,0.1852,0.1884,0.1884,0.1885,0.1897,0.1897,0.1897,0.1897,0.1919,0.192,0.1921,0.1929,0,0,0.1924,0.1924,0,0,0,0,0,0,0,0,0.1783,0.1788,0.1846,0.1848,0.1851,0.1887,0.1862,0.1899,0.1897,0.1877,0.1897,0.1897,0.1908,0.191,0.1916,0.193,0.1931,0.1924,0.1925,0.1925,0.1925,0,0,0,0,0,0,0,0.178,0.1786,0.185,0.1847,0.185,0.1854,0.1859,0.1869,0.1889,0.1878,0.188,0.1891,0.1909,0.1915,0.1916,0.1931,0.1924,0.1925,0.1926,0.1926,0.1977,0.1978,0,0,0,0,0,0,0.1781,0.1784,0.1849,0.1852,0.182,0.1855,0.1861,0.1873,0.189,0.1894,0.1891,0.1891,0.1913,0.1915,0.1917,0.1951,0.1925,0.1926,0.1927,0.1976,0.1977,0.1978,0,0,0,0,0,0,0.1779,0.1786,0.1847,0.1821,0.183,0.1857,0.187,0.1874,0.1887,0.19,0.1902,0.19,0.1913,0.1916,0.1935,0.1951,0.1926,0.1927,0.1975,0.1977,0.1978,0.2004,0,0,0,0,0,0,0.1776,0.1785,0.1794,0.1821,0.1831,0.1871,0.1871,0.1875,0.1894,0.1895,0.1909,0.1911,0.1913,0.1934,0.1936,0.1952,0.1928,0.1974,0.1976,0.1977,0.2002,0.2006,0.2009,0,0,0,0,0,0.1772,0.1784,0.1794,0.1802,0.1843,0.1871,0.1876,0.1894,0.1895,0.1903,0.1915,0.1911,0.1945,0.1935,0.1938,0.1954,0.1974,0.1975,0.1977,0.2,0.2005,0.2009,0,0,0,0,0,0,0.1746,0.1788,0.1799,0.1822,0.1848,0.1875,0.1886,0.1898,0.1913,0.1915,0.1921,0.1924,0.1948,0.1947,0.1937,0.1974,0.1959,0.1961,0.1975,0.198,0.1983,0.1994,0.1929,0,0,0,0,0,0.1747,0.1769,0.1804,0.1823,0.1836,0.1862,0.1876,0.189,0.1909,0.1916,0.1927,0.194,0.1956,0.1965,0.1976,0.1996,0.2013,0.2008,0.2012,0.2015,0.2026,0.2058,0.2065,0.1984,0.1984,0.1984,0,0,0.1739,0.1768,0.1778,0.1819,0.1839,0.1865,0.1869,0.1895,0.1916,0.1916,0.1943,0.1953,0.1964,0.1988,0.1999,0.199,0.205,0.2017,0.2019,0.2029,0.206,0.2068,0.2075,0.1985,0.1985,0.1985,0,0,0.1739,0.1763,0.1783,0.1809,0.1849,0.1869,0.1878,0.1911,0.1924,0.1951,0.1959,0.1982,0.2,0.2018,0.2027,0.2057,0.2068,0.2058,0.2085,0.2116,0.2123,0.2129,0.2176,0.2186,0.2059,0.2059,0.2059,0,0.1728,0.1763,0.1791,0.1821,0.1846,0.1871,0.1898,0.1917,0.1952,0.1972,0.1962,0.2014,0.2016,0.2061,0.2069,0.2066,0.209,0.2067,0.2121,0.2128,0.2134,0.218,0.2191,0.2061,0.2061,0.2061,0.206,0,0.1746,0.1777,0.179,0.184,0.1869,0.1894,0.1932,0.1956,0.1973,0.1999,0.2043,0.2053,0.2089,0.2089,0.2086,0.2136,0.2143,0.2122,0.211,0.2144,0.219,0.2201,0.2063,0.2062,0.2062,0.2062,0,0,0.1712,0.1787,0.1793,0.1824,0.1883,0.1908,0.1949,0.1998,0.2032,0.2059,0.2107,0.2129,0.2145,0.2157,0.2162,0.2183,0.2243,0.2172,0.2173,0.2219,0.233,0.2342,0.2355,0.223,0.2232,0.2233,0.235,0,0.1716,0.1773,0.1812,0.1864,0.1897,0.1941,0.1979,0.2029,0.2065,0.2116,0.2144,0.2187,0.2169,0.2191,0.2212,0.2239,0.2271,0.2215,0.229,0.2293,0.23,0.2368,0.22,0.2291,0.2361,0.2363,0.2364,0,0.1722,0.1764,0.1814,0.1891,0.1908,0.194,0.2015,0.2054,0.2131,0.2162,0.2217,0.2246,0.2306,0.2269,0.2347,0.2313,0.2329,0.2339,0.2343,0.2354,0.2326,0.2266,0.2308,0.2383,0.2381,0.238,0.2379,0,0.1693,0.1766,0.1806,0.1831,0.1916,0.1945,0.1989,0.2067,0.2114,0.2199,0.225,0.2316,0.2367,0.2393,0.2438,0.2393,0.2524,0.246,0.2492,0.2493,0.2367,0.2354,0.2514,0.2513,0.2513,0.2513,0.2512,0,0.1689,0.1721,0.1793,0.1818,0.1867,0.1932,0.1992,0.2046,0.2138,0.2208,0.2274,0.2345,0.2398,0.2482,0.2486,0.2555,0.2572,0.2525,0.2531,0.2373,0.2361,0.2442,0.2432,0.2517,0.2516,0.2515,0.2515,0,0.1653,0.1702,0.1749,0.1829,0.1856,0.1889,0.1991,0.2035,0.213,0.2228,0.2264,0.2394,0.25,0.2571,0.2641,0.2633,0.2679,0.2694,0.2525,0.2508,0.261,0.26,0.2726,0.2727,0.2729,0.273,0.2731,0,0.1641,0.1663,0.1739,0.1762,0.1796,0.1858,0.1902,0.2011,0.2073,0.2253,0.2301,0.2454,0.254,0.2688,0.2719,0.2777,0.276,0.2637,0.2508,0.2642,0.2635,0.2623,0.2612,0.2353,0.2351,0.2349,0.2347,0,0.1611,0.1633,0.1667,0.1715,0.1758,0.181,0.189,0.1938,0.2078,0.217,0.23,0.2387,0.2573,0.2575,0.2692,0.2681,0.2611,0.2602,0.2799,0.2331,0.2302,0.2291,0.229,0.2331,0.2333,0.2334,0.2335,0.2335,0.1569,0.1578,0.1618,0.1658,0.1705,0.1742,0.1764,0.1862,0.1947,0.2078,0.2214,0.2298,0.2406,0.2487,0.2464,0.2457,0.2598,0.2468,0.2468,0.2472,0.2414,0.2389,0.2425,0.2427,0.2429,0.243,0.2432,0,0.1503,0.1526,0.1561,0.1598,0.1615,0.1671,0.1741,0.1753,0.1815,0.1969,0.2072,0.2009,0.2078,0.2165,0.2152,0.2195,0.2112,0.2092,0.1954,0.1976,0.1995,0.1904,0.1784,0.1781,0.1778,0.1776,0,0,0.1465,0.1466,0.149,0.1495,0.1525,0.1527,0.1545,0.1581,0.1669,0.1713,0.1771,0.1984,0.2118,0.1904,0.1924,0.1843,0.1869,0.1779,0.2315,0.2175,0.2188,0.2254,0.2148,0,0,0,0,0]},{"header":{"parameterUnit":"m.s-1","parameterCategory":2,"la1":30.2991,"la2":30.254,"lo1":-89.0895,"lo2":-89.0444,"dy":0.0017,"dx":0.0017,"nx":28,"ny":28,"refTime":"2024-12-02T09:00:00:Z","depth":"2","parameterNumber":3,"parameterNumberName":"V-component_of_CURRENTS"},"data":[0,0,0,0,0,0,0,0,0,0,0,0,0,0,0,0,0,0,0,0,0,0,0,0,0,0,0,0,0,0,0,0,0,0,0,0,0,0,0,0,0,0,0,0,0,0,0,0,0,0,0,0,0,0,0,0,0,0,-0.0205,-0.0206,0,-0.0276,-0.0276,-0.0277,-0.0328,-0.0328,-0.0329,-0.0329,-0.0446,-0.0449,-0.0451,0,0,0,0,0,0,0,0,0,0,0,0,0,-0.0154,-0.0155,-0.0205,-0.0206,-0.0207,-0.0276,-0.0276,-0.0277,-0.0328,-0.0328,-0.0329,-0.0329,-0.0445,-0.0448,-0.0451,0,0,0,0,0,0,0,0,0,0,0,0,0,-0.0195,-0.0155,-0.0205,-0.0241,-0.0245,-0.0275,-0.0276,-0.0277,-0.0327,-0.0328,-0.0329,-0.033,-0.0444,-0.0448,-0.0452,-0.0461,0,0,-0.0464,-0.0466,0,0,0,0,0,0,0,0,-0.0192,-0.0196,-0.0235,-0.0239,-0.0243,-0.0295,-0.0302,-0.0341,-0.0327,-0.0295,-0.0329,-0.033,-0.04,-0.0407,-0.0417,-0.0466,-0.0471,-0.0464,-0.0467,-0.0468,-0.0469,0,0,0,0,0,0,0,-0.0189,-0.0194,-0.0232,-0.0236,-0.0241,-0.0268,-0.0274,-0.0309,-0.0342,-0.0298,-0.0302,-0.0311,-0.0403,-0.0413,-0.042,-0.0473,-0.0464,-0.0468,-0.047,-0.0472,-0.0563,-0.0563,0,0,0,0,0,0,-0.018,-0.0191,-0.0229,-0.0234,-0.022,-0.0268,-0.0275,-0.0276,-0.0341,-0.0351,-0.0311,-0.0314,-0.0406,-0.0415,-0.0424,-0.0457,-0.0468,-0.0472,-0.0474,-0.0563,-0.0563,-0.0564,0,0,0,0,0,0,-0.0178,-0.0182,-0.0226,-0.0216,-0.0223,-0.0268,-0.0269,-0.0277,-0.0295,-0.035,-0.0362,-0.0321,-0.0407,-0.0419,-0.0457,-0.0461,-0.0474,-0.0477,-0.0563,-0.0563,-0.0563,-0.051,0,0,0,0,0,0,-0.0176,-0.0181,-0.0182,-0.0214,-0.0224,-0.0242,-0.0269,-0.0278,-0.03,-0.0304,-0.0363,-0.0374,-0.0408,-0.045,-0.0461,-0.0467,-0.048,-0.0563,-0.0563,-0.0563,-0.0512,-0.0508,-0.0506,0,0,0,0,0,-0.0174,-0.017,-0.0181,-0.0186,-0.0221,-0.0242,-0.0249,-0.0283,-0.0299,-0.0302,-0.0342,-0.0373,-0.0459,-0.0453,-0.0465,-0.0473,-0.0563,-0.0563,-0.0563,-0.0513,-0.0509,-0.0506,0,0,0,0,0,0,-0.0148,-0.0176,-0.0188,-0.0193,-0.0215,-0.0251,-0.0259,-0.0281,-0.0314,-0.0322,-0.0372,-0.0386,-0.0422,-0.0453,-0.0445,-0.05,-0.0517,-0.0519,-0.0474,-0.0471,-0.0468,-0.047,-0.0484,0,0,0,0,0,-0.0141,-0.0146,-0.0175,-0.0179,-0.0187,-0.0222,-0.0236,-0.0259,-0.0291,-0.0307,-0.0349,-0.0393,-0.043,-0.0454,-0.0491,-0.0519,-0.0545,-0.0532,-0.0529,-0.0526,-0.0536,-0.0577,-0.0579,-0.0564,-0.0564,-0.0564,0,0,-0.0132,-0.0149,-0.0152,-0.0175,-0.0194,-0.0199,-0.0232,-0.025,-0.0258,-0.0315,-0.034,-0.0384,-0.0435,-0.0466,-0.0485,-0.0494,-0.0539,-0.0526,-0.0523,-0.0536,-0.0578,-0.0579,-0.0581,-0.0564,-0.0564,-0.0564,0,0,-0.0113,-0.0129,-0.0125,-0.014,-0.0168,-0.0187,-0.019,-0.0226,-0.0244,-0.0272,-0.0316,-0.0361,-0.0414,-0.0454,-0.0479,-0.0482,-0.052,-0.0495,-0.0483,-0.0522,-0.0524,-0.0526,-0.0533,-0.0536,-0.0494,-0.0494,-0.0494,0,-0.0103,-0.0099,-0.0128,-0.0128,-0.0136,-0.0176,-0.017,-0.0193,-0.0239,-0.0255,-0.0274,-0.0369,-0.0408,-0.0456,-0.0459,-0.0475,-0.0496,-0.049,-0.0518,-0.052,-0.0523,-0.0531,-0.0535,-0.0491,-0.0491,-0.0492,-0.0492,0,-0.0077,-0.0079,-0.0077,-0.0088,-0.0101,-0.0102,-0.0133,-0.0152,-0.018,-0.0211,-0.0266,-0.0329,-0.0387,-0.0407,-0.0436,-0.0479,-0.0484,-0.0506,-0.0524,-0.0521,-0.0529,-0.0534,-0.0488,-0.0488,-0.0489,-0.049,0,0,-0.0041,-0.0054,-0.0055,-0.005,-0.0077,-0.0081,-0.0094,-0.0116,-0.0118,-0.0188,-0.0205,-0.0291,-0.0339,-0.0372,-0.0423,-0.0467,-0.0492,-0.0495,-0.0498,-0.0496,-0.056,-0.0537,-0.054,-0.0521,-0.0522,-0.0523,-0.0546,0,-0.001,0.0007,-0.0013,0.0002,0.0011,-0.0027,-0.0028,-0.006,-0.0091,-0.0117,-0.0207,-0.0248,-0.032,-0.0348,-0.0406,-0.0473,-0.0509,-0.0483,-0.057,-0.0572,-0.0547,-0.0547,-0.0525,-0.0543,-0.0552,-0.0553,-0.0553,0,0.0023,0.0031,0.0056,0.0057,0.0059,0.0057,0.0049,0.0039,-0.0012,-0.0041,-0.0119,-0.018,-0.0272,-0.032,-0.0455,-0.0436,-0.0496,-0.0549,-0.0552,-0.0559,-0.056,-0.0555,-0.0552,-0.0562,-0.0562,-0.0561,-0.056,0,0.007,0.0078,0.0104,0.0103,0.0098,0.0098,0.0089,0.0056,0.0064,-0.0003,-0.0007,-0.0133,-0.0178,-0.0301,-0.0423,-0.0439,-0.0548,-0.0577,-0.0612,-0.0609,-0.0623,-0.062,-0.0661,-0.0661,-0.0661,-0.0661,-0.0661,0,0.0113,0.0131,0.0128,0.0141,0.0175,0.0145,0.0173,0.0145,0.0127,0.0155,0.0029,0.0028,-0.0177,-0.0262,-0.0391,-0.0511,-0.0525,-0.0612,-0.0622,-0.06,-0.0595,-0.0648,-0.0646,-0.0662,-0.0662,-0.0661,-0.0661,0,0.0159,0.0156,0.0188,0.0193,0.0196,0.0217,0.0233,0.0262,0.0223,0.0257,0.0238,0.0145,0.0037,-0.0149,-0.032,-0.0442,-0.0574,-0.0607,-0.0552,-0.0556,-0.0615,-0.061,-0.0656,-0.0655,-0.0655,-0.0654,-0.0654,0,0.0186,0.0206,0.0233,0.0262,0.0265,0.0293,0.0325,0.0304,0.0349,0.0349,0.0385,0.0289,0.0253,-0.0002,-0.0243,-0.0463,-0.0511,-0.0578,-0.0617,-0.0613,-0.0618,-0.0614,-0.061,-0.0604,-0.0603,-0.0602,-0.0602,0,0.0237,0.0244,0.0274,0.0338,0.0376,0.0431,0.0475,0.0525,0.0533,0.0562,0.0608,0.0576,0.0347,0.0126,-0.0184,-0.0339,-0.0553,-0.0571,-0.0595,-0.0603,-0.0565,-0.0569,-0.0567,-0.0597,-0.0598,-0.0598,-0.0598,-0.0598,0.0277,0.0313,0.0356,0.042,0.0475,0.0566,0.0627,0.0695,0.0773,0.0836,0.0801,0.0767,0.0494,0.0115,-0.0167,-0.0475,-0.0473,-0.059,-0.0592,-0.0594,-0.0578,-0.0542,-0.0565,-0.0565,-0.0565,-0.0565,-0.0566,0,0.0336,0.0375,0.0439,0.0519,0.0603,0.0617,0.0734,0.0807,0.0922,0.0974,0.0999,0.0779,0.0516,0.0203,-0.024,-0.0507,-0.0555,-0.0592,-0.0598,-0.06,-0.0603,-0.0589,-0.0578,-0.0579,-0.0579,-0.058,0,0,0.0369,0.0444,0.0478,0.0616,0.0681,0.0803,0.0879,0.0982,0.1047,0.1111,0.1096,0.1019,0.0632,0.032,-0.0059,-0.0315,-0.0398,-0.037,-0.0333,-0.0299,-0.0298,-0.0575,-0.0552,0,0,0,0,0]}],[{"header":{"parameterUnit":"m.s-1","parameterCategory":2,"la1":30.2991,"la2":30.254,"lo1":-89.0895,"lo2":-89.0444,"dy":0.0017,"dx":0.0017,"nx":28,"ny":28,"refTime":"2024-12-02T09:00:00:Z","depth":"4","parameterNumber":2,"parameterNumberName":"U-component_of_CURRENTS"},"data":[0,0,0,0,0,0,0,0,0,0,0,0,0,0,0,0,0,0,0,0,0,0,0,0,0,0,0,0,0,0,0,0,0,0,0,0,0,0,0,0,0,0,0,0,0,0,0,0,0,0,0,0,0,0,0,0,0,0,0.1055,0.1056,0,0.1114,0.1114,0.1115,0.1166,0.1167,0.1168,0.1168,0.1238,0.1239,0.124,0,0,0,0,0,0,0,0,0,0,0,0,0,0.0977,0.0978,0.1055,0.1056,0.1057,0.1114,0.1114,0.1115,0.1166,0.1167,0.1168,0.1169,0.1237,0.1239,0.124,0,0,0,0,0,0,0,0,0,0,0,0,0,0.102,0.0978,0.1055,0.109,0.1094,0.1113,0.1114,0.1115,0.1166,0.1167,0.1168,0.1169,0.1237,0.1238,0.124,0.1232,0,0,0.1246,0.1247,0,0,0,0,0,0,0,0,0.1017,0.1023,0.1084,0.1087,0.1092,0.1134,0.1112,0.1155,0.1166,0.1138,0.1168,0.117,0.1204,0.1208,0.1216,0.1235,0.1238,0.1246,0.1247,0.1248,0.1248,0,0,0,0,0,0,0,0.1014,0.102,0.1078,0.1085,0.1089,0.1099,0.1106,0.112,0.1164,0.114,0.1144,0.1152,0.1206,0.1214,0.1218,0.1239,0.1246,0.1248,0.1249,0.1249,0.1338,0.1339,0,0,0,0,0,0,0.1008,0.1018,0.1076,0.108,0.1057,0.1099,0.1107,0.1119,0.1164,0.1172,0.1151,0.1154,0.121,0.1216,0.1221,0.1291,0.1248,0.125,0.1251,0.1337,0.1338,0.134,0,0,0,0,0,0,0.1006,0.1013,0.1073,0.105,0.1059,0.11,0.1112,0.112,0.1157,0.1172,0.118,0.1184,0.1211,0.1218,0.1263,0.1291,0.125,0.1252,0.1335,0.1337,0.1339,0.1382,0,0,0,0,0,0,0.1004,0.1012,0.1027,0.105,0.106,0.1102,0.1112,0.112,0.1159,0.1164,0.1202,0.1208,0.1213,0.126,0.1265,0.1293,0.1254,0.1334,0.1336,0.1339,0.1379,0.1385,0.139,0,0,0,0,0,0.1001,0.1013,0.1027,0.1035,0.1076,0.1103,0.1109,0.1141,0.1159,0.1178,0.121,0.1209,0.1278,0.1263,0.1268,0.1297,0.1333,0.1336,0.1338,0.1376,0.1384,0.139,0,0,0,0,0,0,0.0987,0.102,0.1036,0.1059,0.1088,0.1113,0.1134,0.1155,0.1194,0.1207,0.1224,0.1232,0.128,0.1283,0.1266,0.133,0.1305,0.1309,0.1332,0.1339,0.1345,0.1353,0.1255,0,0,0,0,0,0.099,0.101,0.1041,0.1062,0.1079,0.1112,0.1131,0.1153,0.1185,0.1205,0.1234,0.1263,0.129,0.1312,0.133,0.1366,0.1374,0.1389,0.1394,0.1399,0.141,0.1443,0.1452,0.1349,0.1349,0.1349,0,0,0.099,0.1011,0.1024,0.1061,0.1087,0.1114,0.1127,0.1162,0.1194,0.1204,0.1264,0.1284,0.1303,0.1345,0.1367,0.1356,0.1434,0.1403,0.1407,0.1415,0.1447,0.1457,0.1466,0.1351,0.1351,0.135,0,0,0.0992,0.1022,0.1039,0.1064,0.1106,0.1129,0.1146,0.1188,0.1222,0.1272,0.1289,0.133,0.1373,0.1394,0.1408,0.1457,0.146,0.1466,0.1506,0.1538,0.1547,0.1555,0.158,0.159,0.1472,0.1472,0.1472,0,0.0992,0.1019,0.1048,0.1071,0.1095,0.1139,0.1164,0.1202,0.1257,0.129,0.1299,0.1378,0.1396,0.1446,0.147,0.147,0.1489,0.1477,0.1546,0.1553,0.1561,0.1585,0.1595,0.1474,0.1474,0.1474,0.1473,0,0.0999,0.1033,0.1047,0.1092,0.112,0.1151,0.12,0.1249,0.1296,0.1333,0.1404,0.1432,0.1481,0.1493,0.1503,0.1565,0.1562,0.1545,0.1527,0.1574,0.1596,0.1606,0.1478,0.1477,0.1476,0.1475,0,0,0.0975,0.1039,0.1049,0.1079,0.1136,0.1162,0.1222,0.1289,0.1344,0.14,0.1462,0.1519,0.1546,0.1564,0.1579,0.1614,0.1684,0.1613,0.1614,0.1637,0.1762,0.1688,0.1691,0.1684,0.1686,0.1688,0.1758,0,0.0979,0.1022,0.1054,0.111,0.1139,0.1197,0.1249,0.1315,0.1382,0.1454,0.15,0.1565,0.1569,0.1605,0.164,0.168,0.1712,0.1667,0.1715,0.1717,0.1643,0.17,0.1694,0.1765,0.1767,0.1769,0.177,0,0.0977,0.101,0.1056,0.1131,0.1151,0.1194,0.1293,0.1347,0.1449,0.1507,0.1576,0.1612,0.1691,0.1674,0.1767,0.1743,0.1761,0.1778,0.1781,0.1704,0.1661,0.1708,0.1787,0.1786,0.1785,0.1784,0.1782,0,0.0945,0.1016,0.1056,0.1079,0.1165,0.1212,0.1269,0.1368,0.1427,0.1549,0.1607,0.1686,0.1744,0.1786,0.1839,0.1815,0.1924,0.1885,0.1827,0.1822,0.1847,0.1838,0.1933,0.1933,0.1933,0.1933,0.1933,0,0.0928,0.0968,0.1055,0.1077,0.1142,0.1206,0.1292,0.137,0.1471,0.1549,0.1636,0.1703,0.1779,0.1843,0.1867,0.1893,0.195,0.1851,0.1841,0.1863,0.1855,0.1854,0.1844,0.1936,0.1935,0.1934,0.1934,0,0.0888,0.0942,0.0997,0.1094,0.1129,0.118,0.1295,0.1357,0.1473,0.1574,0.1617,0.174,0.1843,0.1897,0.1975,0.1928,0.1958,0.1943,0.1983,0.1972,0.1822,0.1814,0.188,0.1878,0.1876,0.1875,0.1874,0,0.0867,0.0893,0.0997,0.1035,0.1086,0.1172,0.1229,0.1349,0.1415,0.1592,0.1631,0.1762,0.1838,0.1887,0.1953,0.1991,0.1963,0.1951,0.1866,0.1836,0.182,0.1814,0.1808,0.1871,0.1871,0.1871,0.187,0,0.0831,0.0879,0.0927,0.1002,0.107,0.1136,0.1232,0.1267,0.1414,0.1521,0.162,0.1679,0.1785,0.1843,0.1888,0.1906,0.1946,0.1933,0.1935,0.1855,0.1826,0.1811,0.1807,0.1865,0.1865,0.1866,0.1866,0,0.081,0.0833,0.0904,0.0965,0.1041,0.1091,0.1143,0.123,0.1302,0.1483,0.1517,0.1667,0.1774,0.1803,0.1853,0.1866,0.1828,0.1748,0.1758,0.1765,0.1697,0.1642,0.1631,0,0,0,0,0,0.0785,0.081,0.0862,0.0928,0.0999,0.1045,0.1145,0.1201,0.1332,0.1368,0.1437,0.1536,0.1622,0.1695,0.1687,0.1806,0.1833,0.1788,0.1744,0.1834,0.184,0.1771,0,0,0,0,0,0,0.0771,0.082,0.0844,0.0888,0.0923,0.0996,0.1055,0.1138,0.1164,0.1297,0.1351,0.145,0.1552,0.1616,0.166,0.1682,0.1625,0.1875,0.1871,0.183,0.1836,0.1841,0.1772,0,0,0,0,0]},{"header":{"parameterUnit":"m.s-1","parameterCategory":2,"la1":30.2991,"la2":30.254,"lo1":-89.0895,"lo2":-89.0444,"dy":0.0017,"dx":0.0017,"nx":28,"ny":28,"refTime":"2024-12-02T09:00:00:Z","depth":"4","parameterNumber":3,"parameterNumberName":"V-component_of_CURRENTS"},"data":[0,0,0,0,0,0,0,0,0,0,0,0,0,0,0,0,0,0,0,0,0,0,0,0,0,0,0,0,0,0,0,0,0,0,0,0,0,0,0,0,0,0,0,0,0,0,0,0,0,0,0,0,0,0,0,0,0,0,0.02,0.0199,0,0.0157,0.0157,0.0156,0.0118,0.0117,0.0117,0.0116,0.0062,0.0061,0.006,0,0,0,0,0,0,0,0,0,0,0,0,0,0.0207,0.0207,0.02,0.0199,0.0199,0.0158,0.0157,0.0156,0.0118,0.0117,0.0117,0.0116,0.0062,0.0061,0.006,0,0,0,0,0,0,0,0,0,0,0,0,0,0.0188,0.0207,0.02,0.0175,0.0173,0.0158,0.0157,0.0156,0.0118,0.0117,0.0117,0.0116,0.0063,0.0061,0.0059,0.0061,0,0,0.0054,0.0054,0,0,0,0,0,0,0,0,0.0189,0.0187,0.0179,0.0177,0.0174,0.0143,0.0139,0.0124,0.0118,0.0138,0.0116,0.0116,0.0089,0.0085,0.0077,0.0058,0.0056,0.0054,0.0053,0.0053,0.0052,0,0,0,0,0,0,0,0.019,0.0189,0.0182,0.0179,0.0176,0.0153,0.015,0.0136,0.0116,0.0136,0.0133,0.013,0.0087,0.0079,0.0076,0.0055,0.0054,0.0053,0.0052,0.0051,-0.0001,-0.0002,0,0,0,0,0,0,0.02,0.019,0.0183,0.0181,0.0181,0.0153,0.015,0.0153,0.0116,0.0111,0.0131,0.0129,0.0082,0.0078,0.0074,0.0071,0.0053,0.0051,0.005,-0.0001,-0.0002,-0.0002,0,0,0,0,0,0,0.02,0.02,0.0185,0.0185,0.0181,0.0154,0.0158,0.0152,0.0143,0.0113,0.0106,0.0127,0.0081,0.0076,0.0061,0.0069,0.005,0.0049,-0.0001,-0.0001,-0.0002,0.0068,0,0,0,0,0,0,0.0201,0.0201,0.0208,0.0186,0.0182,0.0183,0.0158,0.0152,0.0142,0.0139,0.0107,0.0102,0.0081,0.0063,0.0059,0.0066,0.0048,0.0,-0.0001,-0.0002,0.0066,0.007,0.0073,0,0,0,0,0,0.0202,0.0218,0.0208,0.0208,0.0192,0.0183,0.0179,0.0157,0.0143,0.0145,0.0119,0.0103,0.0055,0.0062,0.0057,0.0064,0.0,-0.0001,-0.0001,0.0065,0.0069,0.0073,0,0,0,0,0,0,0.0226,0.0215,0.0204,0.0216,0.0202,0.0177,0.0179,0.0161,0.0142,0.0138,0.0105,0.0098,0.0085,0.0061,0.007,0.0042,0.0022,0.002,0.0073,0.0077,0.0081,0.0104,0.0046,0,0,0,0,0,0.0235,0.0244,0.0225,0.0235,0.023,0.0204,0.0198,0.0182,0.0162,0.0153,0.0129,0.0099,0.0078,0.0068,0.0044,0.0038,0.0012,0.0033,0.0036,0.004,0.0052,0.002,0.0023,-0.0005,-0.0005,-0.0005,0,0,0.0249,0.0243,0.0249,0.0241,0.0228,0.0231,0.0199,0.0194,0.0195,0.0151,0.0144,0.0114,0.0077,0.0066,0.0057,0.0049,0.0031,0.0038,0.0042,0.0053,0.002,0.0023,0.0025,-0.0006,-0.0006,-0.0005,0,0,0.028,0.0274,0.029,0.0282,0.0268,0.0254,0.0254,0.0229,0.0216,0.0204,0.0171,0.015,0.0113,0.0095,0.0079,0.0087,0.005,0.0067,0.0109,0.0078,0.0081,0.0083,0.005,0.0049,0.007,0.0071,0.0071,0,0.0297,0.0311,0.0293,0.0302,0.0303,0.0268,0.0282,0.0266,0.0239,0.0233,0.0208,0.0165,0.013,0.0129,0.0121,0.0099,0.0069,0.0103,0.0085,0.0087,0.0088,0.0054,0.0052,0.0074,0.0073,0.0073,0.0073,0,0.0331,0.0344,0.0353,0.0356,0.0356,0.0361,0.0339,0.0331,0.0306,0.0288,0.0274,0.0232,0.0207,0.0186,0.0153,0.0146,0.0119,0.0096,0.0084,0.0096,0.0058,0.0055,0.0078,0.0077,0.0076,0.0076,0,0,0.0361,0.0376,0.0379,0.039,0.0383,0.0387,0.0391,0.0386,0.0388,0.0358,0.0364,0.032,0.0295,0.0275,0.0237,0.0206,0.0177,0.0154,0.0151,0.0137,0.0102,0.005,0.0041,0.0148,0.0147,0.0147,0.0073,0,0.0391,0.0426,0.0425,0.0458,0.0471,0.0452,0.0461,0.0452,0.0429,0.0424,0.0389,0.0373,0.0331,0.0314,0.0285,0.0197,0.017,0.0199,0.0079,0.0076,0.0041,0.0036,0.0147,0.007,0.0069,0.0068,0.0068,0,0.0419,0.0439,0.0479,0.0506,0.0511,0.0527,0.0534,0.0538,0.0522,0.0501,0.0492,0.0456,0.0421,0.0374,0.0272,0.0289,0.0206,0.0141,0.0136,0.0065,0.0017,0.0053,0.0061,0.0061,0.0062,0.0062,0.0063,0,0.0438,0.0477,0.0512,0.0519,0.0542,0.0558,0.057,0.0563,0.0565,0.0552,0.0542,0.0511,0.0472,0.0391,0.0252,0.0256,0.0124,0.0114,0.0001,-0.0003,0.0038,0.0036,0.0049,0.0049,0.005,0.005,0.005,0,0.046,0.0488,0.0525,0.054,0.058,0.0591,0.0622,0.0617,0.0621,0.0623,0.0588,0.057,0.0467,0.0378,0.0272,0.0117,0.0139,0.0011,-0.0025,0.0066,0.0069,0.0035,0.0034,0.0047,0.0048,0.0048,0.0049,0,0.0465,0.049,0.0529,0.057,0.0587,0.0612,0.0651,0.0666,0.0663,0.0665,0.066,0.0597,0.0474,0.0362,0.0203,0.0123,-0.0009,-0.0069,0.0034,0.0004,-0.0113,-0.011,-0.0179,-0.0182,-0.0184,-0.0186,-0.0187,0,0.0468,0.0489,0.0545,0.0569,0.0589,0.0632,0.0658,0.0679,0.0692,0.0671,0.0669,0.0567,0.0505,0.0267,0.0137,-0.0053,-0.0087,-0.0144,-0.0116,-0.0108,-0.0136,-0.0129,-0.0123,-0.0191,-0.0191,-0.0192,-0.0192,0,0.0464,0.0484,0.0513,0.0566,0.0604,0.0649,0.0691,0.0704,0.0718,0.0718,0.066,0.0549,0.0406,0.0246,0.0082,-0.0052,-0.0096,-0.0166,-0.0162,-0.0136,-0.0122,-0.0147,-0.0138,-0.0199,-0.0198,-0.0198,-0.0197,0,0.0452,0.0469,0.0508,0.0553,0.0604,0.0649,0.0678,0.0694,0.0708,0.0694,0.0666,0.0532,0.0459,0.0242,0.0095,-0.0048,-0.0073,-0.0101,-0.0101,-0.0095,-0.0054,-0.0023,-0.0099,0,0,0,0,0,0.0432,0.0452,0.0493,0.0543,0.0597,0.0634,0.0689,0.0715,0.0734,0.0694,0.0685,0.0553,0.0333,0.0245,0.0093,0.0049,-0.0105,-0.0135,-0.0138,-0.0239,-0.0231,-0.0203,0,0,0,0,0,0,0.0416,0.045,0.0479,0.0527,0.0567,0.0628,0.0669,0.0688,0.0673,0.0672,0.0561,0.0511,0.0301,0.0417,0.0088,0.0045,0.0021,-0.0232,-0.0236,-0.0244,-0.0236,-0.023,-0.0198,0,0,0,0,0]}]]